Regional Weather Roundup
Issued by NWS

Home | Current Version | Previous Version | Text Only | Print | Product List | Glossary Off
Versions: 1 2 3 4 5 6 7 8 9 10 11 12 13 14 15 16 17 18 19 20 21 22 23 24 25 26 27 28 29 30 31 32 33 34 35 36 37 38 39 40 41 42 43 44 45 46 47 48 49 50

000
ASUS43 KMPX 230701
RWRMN
WEATHER ROUNDUP FOR MINNESOTA
NATIONAL WEATHER SERVICE TWIN CITIES/CHANHASSEN MN
200 AM CDT SUN APR 23 2017


NOTE: "FAIR" INDICATES FEW OR NO CLOUDS BELOW 12,000 FEET WITH NO
SIGNIFICANT WEATHER AND/OR OBSTRUCTIONS TO VISIBILITY. N/A MEANS
CURRENT SKY AND/OR WEATHER CONDITIONS ARE NOT AVAILABLE.

MNZ060>063-068>070-230800-
   Twin Cities Metro

CITY           SKY/WX    TMP DP  RH WIND       PRES   REMARKS
TWIN CITIES    CLEAR     54  36  50 SW7       30.07F
ST PAUL        CLEAR     48  43  82 CALM      30.08S
CRYSTAL        PTCLDY    53  34  48 SW5       30.06F
BLAINE         PTCLDY    55  36  47 SW6       30.06F
LAKEVILLE      CLEAR     52  37  58 SW5       30.08F
EDEN PRAIRIE   CLEAR     52  36  54 SW9       30.07F
SOUTH ST PAUL  CLEAR     50  38  62 CALM      30.07F
LAKE ELMO      FAIR      45  37  76 CALM      30.08S
$$
MNZ001>005-007-008-013>017-022>024-027-028-230800-
   Northwest Minnesota

CITY           SKY/WX    TMP DP  RH WIND       PRES   REMARKS
BEMIDJI        LGT RAIN  34  33  96 N8        30.16S WCI  27
HALLOCK        CLOUDY    30  18  59 NE15      30.27S WCI  19
ROSEAU         PTCLDY    30  21  69 N10       30.25R WCI  21
WARROAD        CLOUDY    30  23  74 N9        30.25R WCI  22
THIEF RVR FALL CLOUDY    31  25  78 N15       30.22S WCI  20
CROOKSTON      CLOUDY    34  23  64 NE13      30.22F WCI  25
FOSSTON        CLOUDY    30  28  93 N12       30.19R WCI  21
DETROIT LAKES  CLOUDY    39  36  87 NE14      30.14R
MOORHEAD       CLOUDY    37  34  87 N18       30.16F
PARK RAPIDS    CLOUDY    39  32  76 NE12      30.13F
MAHNOMEN       RAIN      34  32  94 N17       30.16S WCI  23
$$
MNZ006-009>011-018-025>026-230800-
   North Central Minnesota

CITY           SKY/WX    TMP DP  RH WIND       PRES   REMARKS
BAUDETTE       CLOUDY    33  25  72 N6        30.21S WCI  28
FLAG ISLAND    PTCLDY    32  23  69 N20       30.24S WCI  20
INTL FALLS     CLOUDY    33  23  66 NE8       30.19S WCI  26
WASKISH        CLOUDY    32  30  93 NE6       30.20S WCI  26
BIG FORK       RAIN      36  32  87 N7        30.17R
LONGVILLE      LGT RAIN  39  36  87 N7        30.13R
GRAND RAPIDS   RAIN      37  35  92 N13       30.14F
CRANE LAKE     LGT SNOW  30  30 100 NE3       30.20S
ORR            LGT SNOW  32  30  93 MISG      30.14S
COOK           LGT RAIN  36  34  93 N6        30.15F
WALKER         RAIN      33  32  96 N7        30.15S WCI  27
$$
MNZ012-019>021-037-230800-
   Northeast Minnesota

CITY           SKY/WX    TMP DP  RH WIND       PRES   REMARKS
DULUTH         CLOUDY    43  38  82 N13       30.08R
ELY            RAIN      34  34 100 N5        30.13R WCI  30
HIBBING        RAIN      36  35  96 N12       30.13R FOG
EVELETH        LGT RAIN  37  34  89 N6        30.14R
DULUTH HARBOR  CLOUDY    45  39  81 N13       30.12R
TWO HARBORS      N/A     45  39  81 N6        30.09S
SILVER BAY     LGT RAIN  43  39  87 N7        30.10R
GRAND MARAIS     N/A     40  35  83 CALM      30.12R
G MARAIS ARPRT FLURRIES  34  28  80 NW7       30.08R WCI  28
$$
MNZ029>031-032-039>041-046>048-054>057-064-230800-
   West Central Minnesota

CITY           SKY/WX    TMP DP  RH WIND       PRES   REMARKS
FERGUS FALLS   MOCLDY    46  37  71 E13G23    30.10R
WHEATON        MOCLDY    41  37  87 NW12      30.14R
MORRIS         CLOUDY    43  39  87 NW12      30.08R
ALEXANDRIA     MOCLDY    50  40  68 N12       30.08R
ELBOW LAKE     MOCLDY    47  41  80 E14G21    30.08S
WADENA         CLOUDY    41  34  75 NE13      30.11S
GLENWOOD       CLOUDY    48  41  76 W10       30.07S
APPLETON       PTCLDY    46  39  76 NW12      30.09R
BENSON         PTCLDY    48  37  66 NW9       30.10R
ORTONVILLE     PTCLDY    43  37  81 NW16G22   30.11R
MADISON        CLEAR     54  39  58 W7        30.09R
WILLMAR        FAIR      52  39  62 SW10      30.08F
$$
MNZ033>034-036-042>043-049>051-058-059-230800-
   Central Minnesota

CITY           SKY/WX    TMP DP  RH WIND       PRES   REMARKS
ST CLOUD       CLEAR     50  38  63 SW7       30.05S
SAUK CENTRE    FAIR      49  39  69 NW8       30.07R
PAYNESVILLE    CLEAR     54  37  52 SW10      30.06S
AITKIN         CLOUDY    46  36  66 N7        30.09S
PINE RIVER     DRIZZLE   41  36  81 N15       30.16R
BRAINERD       CLOUDY    46  37  71 N14       30.11R
STAPLES        CLOUDY    43  36  75 NE14G21   30.11S
LONG PRAIRIE   FAIR      46  39  76 NW14      30.08R
LITTLE FALLS   MOCLDY    50  39  66 N7        30.08R
LITCHFIELD     CLEAR     54  39  58 SW5       30.07F
BUFFALO        CLEAR     50  38  64 CALM      30.07S
MAPLE LAKE     CLEAR     53  39  60 SW3       30.07S
HUTCHINSON     CLOUDY    51  38  62 SW3       30.09F
$$
MNZ037-044-045-052-053-230800-
   East Central Minnesota

CITY           SKY/WX    TMP DP  RH WIND       PRES   REMARKS
PRINCETON      PTCLDY    52  37  58 SW5       30.05S
MORA           CLOUDY    50  37  62 NW8G17    30.06R
CAMBRIDGE      CLOUDY    54  39  58 S3        30.03S
RUSH CITY      CLOUDY    53  36  52 SW7       30.03F
MOOSE LAKE     CLOUDY    45  37  76 NE7G16    30.07S
HINCKLEY       CLOUDY    52  41  66 N15G22    30.06R
CLOQUET        CLOUDY    45  36  70 N7G17     30.09F
MCGREGOR       CLOUDY    45  37  76 N8        30.11R
$$
MNZ071>073-080-081-089-090-097-098-230800-
   Southwest Minnesota

CITY           SKY/WX    TMP DP  RH WIND       PRES   REMARKS
MONTEVIDEO     CLEAR     52  36  54 W7        30.08S
GRANITE FALLS  CLEAR     50  39  67 SW9       30.10S
CANBY          CLEAR     53  38  55 SW10      30.08F
MARSHALL       CLEAR     52  37  56 SW14      30.10S
REDWOOD FALLS  CLEAR     51  36  56 SW12      30.09F
OLIVIA         CLEAR     46  36  66 W3        30.09S
PIPESTONE      CLEAR     43  34  70 SW9       30.12F
WINDOM         CLEAR     50  36  57 SW8       30.13F
WORTHINGTON    PTCLDY    50  34  54 SW10      30.14F
JACKSON        CLEAR     46  34  61 SW6       30.15S
TRACY          CLEAR     51  39  63 SW15      30.10F
SLAYTON        CLEAR     49  37  64 SW9       30.13F
$$
MNZ065>067-074>077-082>085-091>093-230800-
   South Central Minnesota

CITY           SKY/WX    TMP DP  RH WIND       PRES   REMARKS
MANKATO        CLEAR     52  36  54 SW6       30.11F
NEW ULM        CLEAR     48  37  66 SW9       30.10F
ST JAMES       CLEAR     46  37  71 SW7       30.13F
FAIRMONT       CLEAR     51  36  56 W12       30.14S
GLENCOE        CLEAR     51  40  66 SW3       30.08F
FARIBAULT      PTCLDY    48  39  71 S3        30.11S
OWATONNA       CLEAR     48  37  66 S8        30.11F
WASECA         CLEAR     45  36  70 CALM      30.12F
ALBERT LEA     CLEAR     48  37  66 SW5       30.13S
$$
MNZ078>079-086>088-094>096-230800-
   Southeast Minnesota

CITY           SKY/WX    TMP DP  RH WIND       PRES   REMARKS
ROCHESTER      CLEAR     45  36  70 SW9       30.12S
RED WING       CLEAR     43  37  81 CALM      30.08F
STANTON        CLEAR     47  37  69 S5        30.08F
DODGE CENTER   CLEAR     46  37  71 SW7       30.11F
WINONA         CLEAR     45  37  76 CALM      30.11F
AUSTIN         CLEAR     46  36  66 SW5       30.13R
PRESTON        CLEAR     46  33  61 SW8       30.13S
$$
ABBREVIATIONS USED IN REMARKS
   TC - TEMPERATURES IN CELSIUS
  WCI - WIND CHILL INDEX
   HX - HEAT INDEX
  VSB - VISIBILITY
$$




USA.gov is the U.S. government's official web portal to all federal, state and local government web resources and services.